Eau Claire, WI

4:16 AM CDT on May 30, 2017 (GMT -0500)
Chippewa Valley Regional

Weather History for KEAU - August, 2013

Change the Weather History Date:

Tuesday, August 20, 2013

  Actual Average Record
Temperature  
Mean Temperature 79 °F 69 °F  
Max Temperature 91 °F 80 °F 96 °F (1906)
Min Temperature 67 °F 58 °F 37 °F (1950)
Degree Days  
Heating Degree Days 0 1  
Month to date heating degree days 12 15  
Since 1 June heating degree days 101 88  
Since 1 July heating degree days 38 26  
Cooling Degree Days 14 5  
Month to date cooling degree days 52 114  
Year to date cooling degree days 416 480  
Since 1 June cooling degree days 384 448  
Growing Degree Days 28 (Base 50)    
Moisture  
Dew Point 66 °F    
Average Humidity 67    
Maximum Humidity 87    
Minimum Humidity 47    
Precipitation  
Precipitation 0.00 in 0.15 in 1.72 in (1939)
Month to date precipitation 0.39 3.00  
Year to date precipitation 26.94 20.65  
Snow  
Snow 0.00 in 0.00 in 0.00 in ()
Month to date snowfall 0.0 0.0  
Since 1 June snowfall 0.0 0.0  
Since 1 July snowfall 0.0 0.0  
Snow Depth 0.00 in    
Sea Level Pressure  
Sea Level Pressure 29.92 in    
Wind  
Wind Speed 10 mph (South)    
Max Wind Speed 21 mph    
Max Gust Speed 26 mph    
Visibility 10 miles    
Events      
T = Trace of Precipitation, MM = Missing Value Source: NWS Daily Summary

Daily Weather History Graph

Daily Weather History Graph

Search for Another Location

Airport or City:

Trip Planner

Search our weather history database for the weather conditions in past years. The results will help you decide how hot, cold, wet, or windy it might be!

Date:

Astronomy

Aug. 20, 2013 Rise Set
Actual Time 6:14 AM CDT 8:03 PM CDT
Civil Twilight 5:42 AM CDT 8:34 PM CDT
Nautical Twilight 5:04 AM CDT 9:12 PM CDT
Astronomical Twilight 4:22 AM CDT 9:54 PM CDT
Moon 7:32 PM CDT (8/20) 5:45 AM CDT (8/20)
Length of Visible Light 14h 51m
Length of Day
13h 49m
Full, 100% of the Moon is Illuminated
Aug 20
Full
Aug 20
Full
Aug 28
Last Quarter
Sep 5
New
Sep 12
First Quarter

Hourly Weather History & Observations

Time (CDT) Temp. Heat Index Dew Point Humidity Pressure Visibility Wind Dir Wind Speed Gust Speed Precip Events Conditions
12:56 AM 72.0 °F - 64.0 °F 76% 29.95 in 10.0 mi South 5.8 mph - N/A   Scattered Clouds
1:56 AM 71.1 °F - 64.0 °F 78% 29.94 in 10.0 mi South 5.8 mph - N/A   Scattered Clouds
2:56 AM 69.1 °F - 63.0 °F 81% 29.93 in 10.0 mi South 5.8 mph - N/A   Clear
3:56 AM 68.0 °F - 63.0 °F 84% 29.94 in 10.0 mi South 6.9 mph - N/A   Clear
4:56 AM 66.9 °F - 62.1 °F 84% 29.93 in 9.0 mi South 5.8 mph - N/A   Clear
5:56 AM 66.9 °F - 62.1 °F 84% 29.94 in 10.0 mi South 6.9 mph - N/A   Scattered Clouds
6:56 AM 69.1 °F - 62.1 °F 78% 29.95 in 9.0 mi South 8.1 mph - N/A   Scattered Clouds
7:56 AM 71.1 °F - 62.1 °F 73% 29.95 in 10.0 mi South 9.2 mph - N/A   Mostly Cloudy
8:56 AM 73.0 °F - 63.0 °F 71% 29.96 in 10.0 mi South 10.4 mph - N/A   Mostly Cloudy
9:56 AM 77.0 °F - 64.0 °F 64% 29.95 in 10.0 mi South 9.2 mph - N/A   Mostly Cloudy
10:56 AM 81.0 °F 82.7 °F 64.9 °F 58% 29.94 in 10.0 mi South 10.4 mph - N/A   Clear
11:56 AM 84.0 °F 86.3 °F 66.0 °F 55% 29.93 in 10.0 mi SSE 9.2 mph - N/A   Clear
12:56 PM 87.1 °F 89.9 °F 66.9 °F 51% 29.91 in 10.0 mi South 12.7 mph - N/A   Clear
1:56 PM 88.0 °F 90.7 °F 66.9 °F 49% 29.90 in 10.0 mi South 12.7 mph 21.9 mph N/A   Clear
2:56 PM 89.1 °F 92.1 °F 66.9 °F 48% 29.89 in 10.0 mi South 15.0 mph 23.0 mph N/A   Partly Cloudy
3:56 PM 89.1 °F 92.9 °F 68.0 °F 50% 29.88 in 10.0 mi SSW 15.0 mph 21.9 mph N/A   Mostly Cloudy
4:56 PM 87.1 °F 90.6 °F 68.0 °F 53% 29.88 in 10.0 mi South 13.8 mph - N/A   Mostly Cloudy
5:56 PM 87.1 °F 91.3 °F 69.1 °F 55% 29.88 in 10.0 mi SSW 13.8 mph 20.7 mph N/A   Overcast
6:56 PM 84.9 °F 88.8 °F 69.1 °F 59% 29.88 in 10.0 mi SSW 12.7 mph 24.2 mph N/A   Overcast
7:56 PM 82.9 °F 86.5 °F 69.1 °F 63% 29.88 in 10.0 mi SSW 13.8 mph - N/A   Partly Cloudy
8:56 PM 81.0 °F 84.1 °F 69.1 °F 67% 29.90 in 10.0 mi South 8.1 mph - N/A   Partly Cloudy
9:56 PM 79.0 °F - 69.1 °F 72% 29.91 in 10.0 mi South 6.9 mph - N/A   Clear
10:56 PM 78.1 °F - 69.1 °F 74% 29.90 in 10.0 mi South 8.1 mph - N/A   Clear
11:56 PM 77.0 °F - 69.1 °F 76% 29.89 in 10.0 mi South 6.9 mph - N/A   Clear